| time (UTC) | temp F | wind direction | speed knots | gust knots | rain 1hr in | rain 24hr in | rain mn in | humidity % | barometer mb |
| 20260506212122 | 66 | 215 | 2.6 | 7.0 | 0.00 | 0.08 | 0.08 | 87 | 1007.0 |
| 20260506211120 | 66 | 247 | 1.7 | 7.0 | 0.00 | 0.08 | 0.08 | 88 | 1006.9 |
| 20260506205120 | 66 | 266 | 1.7 | 7.0 | 0.00 | 0.08 | 0.08 | 88 | 1006.8 |
| 20260506204120 | 66 | 221 | 1.7 | 7.0 | 0.00 | 0.08 | 0.08 | 88 | 1006.7 |
| 20260506203121 | 65 | 148 | 0.9 | 5.2 | 0.00 | 0.08 | 0.08 | 90 | 1006.6 |
| 20260506202121 | 65 | 248 | 0.9 | 4.3 | 0.00 | 0.08 | 0.08 | 92 | 1006.7 |
| 20260506201121 | 64 | 196 | 0.9 | 3.5 | 0.00 | 0.08 | 0.08 | 92 | 1006.7 |
| 20260506200121 | 64 | 191 | 0.9 | 5.2 | 0.00 | 0.08 | 0.08 | 93 | 1006.9 |
| 20260506194121 | 63 | 152 | 1.7 | 5.2 | 0.00 | 0.08 | 0.08 | 94 | 1007.2 |
| 20260506193112 | 63 | 268 | 2.6 | 8.7 | 0.00 | 0.08 | 0.08 | 93 | 1007.4 |
| 20260506191110 | 63 | 223 | 0.9 | 3.5 | 0.01 | 0.08 | 0.08 | 94 | 1007.4 |
| 20260506190108 | 63 | 157 | 0.9 | 4.3 | 0.01 | 0.08 | 0.08 | 94 | 1007.5 |
| 20260506184108 | 63 | 250 | 2.6 | 7.8 | 0.01 | 0.08 | 0.08 | 94 | 1007.6 |
| 20260506183110 | 63 | 249 | 1.7 | 7.8 | 0.01 | 0.08 | 0.08 | 93 | 1007.7 |
| 20260506182110 | 63 | 233 | 1.7 | 8.7 | 0.01 | 0.08 | 0.08 | 92 | 1007.6 |
| 20260506181110 | 64 | 233 | 2.6 | 9.6 | 0.00 | 0.07 | 0.07 | 91 | 1007.8 |
| 20260506180110 | 65 | 140 | 0.0 | 2.6 | 0.00 | 0.07 | 0.07 | 91 | 1007.7 |
| 20260506174108 | 65 | 197 | 0.9 | 4.3 | 0.01 | 0.07 | 0.07 | 91 | 1008.0 |
| 20260506164110 | 63 | 203 | 0.9 | 3.5 | 0.06 | 0.06 | 0.06 | 92 | 1008.6 |
| 20260506162109 | 63 | 231 | 0.0 | 1.7 | 0.05 | 0.05 | 0.05 | 91 | 1009.1 |
| 20260506161112 | 64 | 214 | 0.0 | 4.3 | 0.04 | 0.04 | 0.04 | 90 | 1009.3 |
| 20260506160104 | 64 | 170 | 0.9 | 5.2 | 0.03 | 0.03 | 0.03 | 87 | 1009.5 |
| 20260506155103 | 66 | 200 | 0.9 | 5.2 | 0.01 | 0.01 | 0.01 | 84 | 1009.3 |
| 20260506154104 | 67 | 176 | 0.9 | 5.2 | 0.00 | 0.00 | 0.00 | 80 | 1009.3 |
| 20260506153103 | 68 | 229 | 1.7 | 7.8 | 0.00 | 0.00 | 0.00 | 79 | 1009.1 |
| 20260506152104 | 69 | 305 | 0.9 | 4.3 | 0.00 | 0.00 | 0.00 | 79 | 1009.3 |
| 20260506151102 | 69 | 276 | 0.9 | 6.1 | 0.00 | 0.00 | 0.00 | 77 | 1009.1 |
| 20260506145103 | 69 | 262 | 4.3 | 11.3 | 0.00 | 0.00 | 0.00 | 74 | 1009.6 |
| 20260506144103 | 70 | 175 | 2.6 | 9.6 | 0.00 | 0.00 | 0.00 | 73 | 1009.7 |
| 20260506143058 | 70 | 229 | 4.3 | 11.3 | 0.00 | 0.00 | 0.00 | 73 | 1009.6 |
| 20260506142058 | 70 | 240 | 4.3 | 12.2 | 0.00 | 0.00 | 0.00 | 73 | 1009.7 |
| 20260506141058 | 69 | 278 | 2.6 | 13.0 | 0.00 | 0.00 | 0.00 | 75 | 1009.5 |
| 20260506140100 | 69 | 229 | 2.6 | 8.7 | 0.00 | 0.00 | 0.00 | 75 | 1009.6 |
| 20260506135058 | 69 | 245 | 3.5 | 9.6 | 0.00 | 0.00 | 0.00 | 75 | 1009.5 |
| 20260506134059 | 69 | 240 | 2.6 | 10.4 | 0.00 | 0.00 | 0.00 | 74 | 1009.5 |
| 20260506133058 | 69 | 258 | 2.6 | 13.0 | 0.00 | 0.00 | 0.00 | 75 | 1009.8 |
| 20260506132100 | 69 | 98 | 3.5 | 11.3 | 0.00 | 0.00 | 0.00 | 74 | 1009.6 |
| 20260506131059 | 69 | 226 | 2.6 | 9.6 | 0.00 | 0.00 | 0.00 | 76 | 1009.6 |
| 20260506130100 | 68 | 252 | 2.6 | 7.8 | 0.00 | 0.00 | 0.00 | 76 | 1009.7 |
| 20260506125058 | 68 | 320 | 2.6 | 9.6 | 0.00 | 0.00 | 0.00 | 77 | 1009.3 |
| 20260506124059 | 68 | 135 | 2.6 | 9.6 | 0.00 | 0.00 | 0.00 | 78 | 1009.3 |
| 20260506122100 | 67 | 277 | 1.7 | 10.4 | 0.00 | 0.00 | 0.00 | 78 | 1009.6 |
| 20260506120056 | 66 | 219 | 1.7 | 11.3 | 0.00 | 0.00 | 0.00 | 79 | 1009.7 |
| 20260506115055 | 66 | 138 | 2.6 | 9.6 | 0.00 | 0.00 | 0.00 | 79 | 1009.7 |
| 20260506114057 | 66 | 281 | 1.7 | 9.6 | 0.00 | 0.00 | 0.00 | 79 | 1010.0 |
| 20260506113058 | 66 | 283 | 1.7 | 9.6 | 0.00 | 0.00 | 0.00 | 80 | 1009.9 |
| 20260506112057 | 66 | 174 | 0.9 | 5.2 | 0.00 | 0.00 | 0.00 | 81 | 1009.9 |
| 20260506111056 | 65 | 142 | 1.7 | 7.8 | 0.00 | 0.00 | 0.00 | 82 | 1009.9 |
| 20260506110057 | 65 | 144 | 1.7 | 13.0 | 0.00 | 0.00 | 0.00 | 82 | 1009.8 |
| 20260506105057 | 64 | 203 | 1.7 | 9.6 | 0.00 | 0.00 | 0.00 | 83 | 1009.7 |
| 20260506104049 | 64 | 152 | 1.7 | 6.1 | 0.00 | 0.00 | 0.00 | 84 | 1009.6 |
| 20260506103049 | 63 | 127 | 0.9 | 5.2 | 0.00 | 0.00 | 0.00 | 84 | 1009.6 |
| 20260506102045 | 63 | 233 | 1.7 | 6.1 | 0.00 | 0.00 | 0.00 | 84 | 1009.8 |
| 20260506101045 | 63 | 180 | 0.9 | 5.2 | 0.00 | 0.00 | 0.00 | 84 | 1009.6 |
| 20260506095045 | 64 | 136 | 1.7 | 6.1 | 0.00 | 0.00 | 0.00 | 84 | 1009.4 |
| 20260506094041 | 64 | 212 | 0.9 | 7.0 | 0.00 | 0.00 | 0.00 | 84 | 1009.3 |
| 20260506093042 | 64 | 306 | 0.9 | 6.1 | 0.00 | 0.00 | 0.00 | 84 | 1009.5 |
| 20260506092042 | 64 | 269 | 1.7 | 9.6 | 0.00 | 0.00 | 0.00 | 83 | 1009.3 |
| 20260506090036 | 64 | 139 | 0.9 | 8.7 | 0.00 | 0.00 | 0.00 | 83 | 1009.5 |
| 20260506085037 | 64 | 207 | 1.7 | 7.0 | 0.00 | 0.00 | 0.00 | 83 | 1009.5 |
| 20260506084035 | 64 | 237 | 1.7 | 7.8 | 0.00 | 0.00 | 0.00 | 83 | 1009.6 |
| 20260506083035 | 64 | 217 | 0.9 | 7.8 | 0.00 | 0.00 | 0.00 | 83 | 1009.6 |
| 20260506082035 | 65 | 139 | 1.7 | 7.8 | 0.00 | 0.00 | 0.00 | 83 | 1009.6 |
| 20260506081034 | 65 | 259 | 1.7 | 6.1 | 0.00 | 0.00 | 0.00 | 83 | 1009.6 |
| 20260506073031 | 65 | 252 | 0.9 | 6.1 | 0.00 | 0.00 | 0.00 | 81 | 1009.7 |
| 20260506062033 | 66 | 232 | 1.7 | 7.0 | 0.00 | 0.00 | 0.00 | 78 | 1010.0 |
| 20260506061029 | 66 | 201 | 0.9 | 7.0 | 0.00 | 0.00 | 0.00 | 78 | 1010.0 |
| 20260506051030 | 67 | 250 | 0.9 | 5.2 | 0.00 | 0.00 | 0.00 | 74 | 1010.3 |
| 20260506045031 | 68 | 177 | 1.7 | 7.0 | 0.00 | 0.00 | 0.00 | 73 | 1010.3 |
| 20260506044030 | 68 | 188 | 0.9 | 4.3 | 0.00 | 0.00 | 0.00 | 72 | 1010.4 |
| 20260506042033 | 68 | 147 | 0.9 | 6.1 | 0.00 | 0.00 | 0.00 | 72 | 1010.4 |
| 20260506041030 | 68 | 212 | 0.9 | 7.0 | 0.00 | 0.00 | 0.00 | 71 | 1010.3 |
| 20260506040035 | 68 | 136 | 1.7 | 7.0 | 0.00 | 0.00 | 0.00 | 70 | 1010.3 |
| 20260506035025 | 68 | 165 | 1.7 | 5.2 | 0.00 | 0.00 | 0.00 | 70 | 1010.4 |
| 20260506033028 | 69 | 130 | 0.9 | 5.2 | 0.00 | 0.00 | 0.00 | 69 | 1010.3 |
| 20260506032024 | 69 | 158 | 1.7 | 7.0 | 0.00 | 0.00 | 0.00 | 68 | 1010.3 |
| 20260506031024 | 69 | 147 | 1.7 | 7.0 | 0.00 | 0.00 | 0.00 | 68 | 1010.2 |
| 20260506030028 | 69 | 184 | 0.9 | 8.7 | 0.00 | 0.00 | 0.00 | 68 | 1010.3 |
| 20260506025028 | 69 | 207 | 0.9 | 3.5 | 0.00 | 0.00 | 0.00 | 67 | 1010.2 |
| 20260506024028 | 69 | 211 | 0.9 | 6.1 | 0.00 | 0.00 | 0.00 | 66 | 1010.4 |
| 20260506023030 | 70 | 190 | 0.9 | 7.8 | 0.00 | 0.00 | 0.00 | 65 | 1010.4 |
| 20260506022012 | 71 | 162 | 0.0 | 5.2 | 0.00 | 0.00 | 0.00 | 64 | 1010.4 |
| 20260506021018 | 71 | 148 | 0.9 | 4.3 | 0.00 | 0.00 | 0.00 | 64 | 1010.4 |
| 20260506020012 | 71 | 160 | 1.7 | 8.7 | 0.00 | 0.00 | 0.00 | 63 | 1010.3 |
| 20260506015012 | 72 | 150 | 1.7 | 7.8 | 0.00 | 0.00 | 0.00 | 62 | 1010.3 |
| 20260506014011 | 72 | 186 | 2.6 | 7.8 | 0.00 | 0.00 | 0.00 | 61 | 1010.1 |
| 20260506013012 | 73 | 169 | 3.5 | 11.3 | 0.00 | 0.00 | 0.00 | 60 | 1010.1 |
| 20260506012019 | 73 | 207 | 2.6 | 10.4 | 0.00 | 0.00 | 0.00 | 59 | 1010.1 |
| 20260506011012 | 73 | 314 | 2.6 | 10.4 | 0.00 | 0.00 | 0.00 | 57 | 1009.8 |
| 20260506010012 | 74 | 49 | 2.6 | 10.4 | 0.00 | 0.00 | 0.00 | 56 | 1009.7 |
| 20260506004006 | 75 | 188 | 2.6 | 7.0 | 0.00 | 0.00 | 0.00 | 51 | 1009.3 |
| 20260506003007 | 76 | 165 | 1.7 | 7.0 | 0.00 | 0.00 | 0.00 | 49 | 1009.1 |
| 20260506002006 | 76 | 160 | 2.6 | 7.8 | 0.00 | 0.00 | 0.00 | 48 | 1009.3 |
| 20260506001006 | 77 | 149 | 0.9 | 7.8 | 0.00 | 0.00 | 0.00 | 48 | 1009.0 |
| 20260506000007 | 77 | 210 | 1.7 | 8.7 | 0.00 | 0.00 | 0.00 | 48 | 1009.0 |
| 20260505235006 | 77 | 153 | 2.6 | 8.7 | 0.00 | 0.00 | 0.00 | 47 | 1009.2 |
| 20260505232005 | 79 | 234 | 2.6 | 10.4 | 0.00 | 0.00 | 0.00 | 43 | 1008.7 |
| 20260505231003 | 80 | 266 | 3.5 | 11.3 | 0.00 | 0.00 | 0.00 | 41 | 1008.4 |
| 20260505230004 | 80 | 236 | 4.3 | 15.6 | 0.00 | 0.00 | 0.00 | 41 | 1008.5 |
| 20260505225003 | 80 | 262 | 3.5 | 12.2 | 0.00 | 0.00 | 0.00 | 39 | 1008.4 |
| 20260505224004 | 80 | 217 | 4.3 | 13.0 | 0.00 | 0.00 | 0.00 | 38 | 1008.4 |
| 20260505223003 | 81 | 214 | 3.5 | 10.4 | 0.00 | 0.00 | 0.00 | 38 | 1008.5 |
| 20260505221005 | 82 | 119 | 5.2 | 13.9 | 0.00 | 0.00 | 0.00 | 37 | 1008.4 |
| 20260505215000 | 82 | 233 | 5.2 | 13.0 | 0.00 | 0.00 | 0.00 | 35 | 1008.1 |
| 20260505213957 | 83 | 229 | 7.0 | 18.2 | 0.00 | 0.00 | 0.00 | 33 | 1007.9 |
| 20260505212958 | 83 | 274 | 4.3 | 15.6 | 0.00 | 0.00 | 0.00 | 35 | 1007.8 |